User: anonymous   Login
Location: Unspecified
(0.0000°N, 0.0000°E)
Time: 18:10:19
(UTC+00:00)
Language:

STARLINK-11502 [DTC] - Orbit

View from above orbital plane
View from above orbital plane
View from above satellite
View from above satellite

Ground track
Ground track

The orbit is defined by the following mean orbital elements,

1 62474U          26144.93713652 +.00000000 +00000-0 +18087-2 0 00005
2 62474  42.9995 123.3244 0001163 212.3277 147.7520 15.70958313    05
Epoch (UTC): 24 May 2026 22:29:28
Eccentricity: 0.0001163
inclination: 42.9995°
perigee height: 355 km
apogee height: 357 km
right ascension of ascending node: 123.3244°
argument of perigee: 212.3277°
revolutions per day: 15.70958313
mean anomaly at epoch: 147.7520°

The dashed part of the orbit path shows where the satellite is in the earth's shadow,  

DLR